User: anonymous   Login
Location: Mascot Post Office (historical)
(40.2645°N, 99.5462°W)
Time: 08:17:11
(UTC+00:00)
Language:

Cosmos 1812 - Orbit

View from above orbital plane
View from above orbital plane
View from above satellite
View from above satellite

Ground track
Ground track

The orbit data is extracted from the following two-line orbital elements,

1 17295U 87003A   20273.08252700  .00000632  00000-0  31606-4 0  9991
2 17295  82.5155  43.4071 0001971 312.6638  47.4428 15.15625265840647
Epoch (UTC): 29 September 2020 01:58:50
Eccentricity: 0.0001971
inclination: 82.5155°
perigee height: 518 km
apogee height: 520 km
right ascension of ascending node: 43.4071°
argument of perigee: 312.6638°
revolutions per day: 15.15625265
mean anomaly at epoch: 47.4428°
orbit number at epoch: 84064

The dashed part of the orbit path shows where the satellite is in the earth's shadow,  

DLR